Tiempo atmosférico en la estación meteorológica de Ronda Instituto, Málaga (760 m.)



Fecha
DESCASC
Temp. máxima en grados centígrados (hora)
DESCASC
Temp. mínima en grados centígrados (hora)
DESCASC
Temp. media en grados centígrados
DESCASC
Racha de viento máxima en m/sg (hora)
DESCASC
Velocidad máxima media en intervalos de 10 minutos(hora)
DESCASC
Precipitaciones diarias en mm
DESCASC
Precipitaciones de 00:00 a 06:00 en mm
DESCASC
Precipitaciones de 06:00 a 12:00 en mm
DESCASC
Precipitaciones de 12:00 a 18:00 en mm
DESCASC
Precipitaciones de 18:00 a 24:00 en mm
DESCASC
26-11-2020 10.8 (00:10) 5.3 (22:40) 8.1 -- (--) 4.72 (00:20) 36.6 22.2 3.8 2.8 7.8
25-11-2020 -- (--) -- (--) -- -- (--) -- (--) 20.8 0 0.2 15 5.6
24-11-2020 -- (--) -- (--) -- -- (--) -- (--) 0 0 0 0 0
23-11-2020 16.3 (14:30) 6.5 (05:50) 11.4 -- (--) 3.61 (13:00) 0 0 0 0 0
22-11-2020 15.6 (14:50) 7.7 (00:00) 11.7 -- (--) 5.28 (01:10) 0 0 0 0 0
21-11-2020 -- (--) -- (--) -- -- (--) -- (--) 0 0 0 0 0
20-11-2020 -- (--) -- (--) -- -- (--) -- (--) 0 0 0 0 0
19-11-2020 -- (--) -- (--) -- -- (--) -- (--) 0 0 0 0 0
18-11-2020 22 (15:40) 10.5 (00:00) 16.3 -- (--) 1.94 (03:20) 0 0 0 0 0
17-11-2020 23.8 (14:30) 12 (00:00) 17.9 -- (--) 3.06 (16:00) 0 0 0 0 0
16-11-2020 22.9 (13:50) 13.4 (00:00) 18.1 -- (--) 3.33 (14:20) 0 0 0 0 0
15-11-2020 23.1 (15:50) 11.3 (00:00) 17.2 -- (--) 2.5 (15:50) 0.2 0 0.2 0 0
14-11-2020 17.3 (15:50) 12.7 (00:00) 15 -- (--) 3.61 (12:00) 1.8 0 1.6 0 0.2
13-11-2020 18.5 (12:20) 12.1 (00:00) 15.3 -- (--) 2.78 (12:30) 0 0 0 0 0
12-11-2020 18.1 (13:50) 11.6 (00:00) 14.9 -- (--) 4.72 (14:20) 0 0 0 0 0
11-11-2020 -- (--) -- (--) -- -- (--) -- (--) 0 0 0 0 0
10-11-2020 -- (--) -- (--) -- -- (--) -- (--) 0 0 0 0 0
09-11-2020 17.5 (14:30) 10 (00:00) 13.8 -- (--) 2.78 (16:40) 0.4 0 0.4 0 0
08-11-2020 18.9 (14:50) 10.7 (00:00) 14.8 -- (--) 3.06 (13:30) 0 0 0 0 0
07-11-2020 17.7 (13:50) 10.7 (00:00) 14.2 -- (--) 8.89 (03:30) 4.2 4 0.2 0 0
06-11-2020 21 (11:50) 13 (00:00) 17 -- (--) 6.94 (23:40) 2.6 0 0 0 2.6
05-11-2020 17.1 (15:50) 9.3 (00:00) 13.2 -- (--) 8.33 (04:30) 72.4 11.8 57.4 3.2 0
04-11-2020 15.9 (12:50) 11.5 (00:00) 13.7 -- (--) 4.72 (16:10) 14.6 0 0.8 10.2 3.6
03-11-2020 23.7 (13:00) 12.4 (00:00) 18.1 -- (--) 3.61 (14:40) 0 0 0 0 0
02-11-2020 26.2 (15:10) 13 (00:00) 19.6 -- (--) 3.06 (16:10) 0 0 0 0 0
01-11-2020 26.2 (14:40) 11.4 (00:00) 18.8 -- (--) 3.61 (16:20) 0 0 0 0 0
31-10-2020 -- (--) -- (--) -- -- (--) -- (--) 0 0 0 0 0
30-10-2020 -- (--) -- (--) -- -- (--) -- (--) 0 0 0 0 0
29-10-2020 -- (--) -- (--) -- -- (--) -- (--) 0 0 0 0 0
28-10-2020 -- (--) -- (--) -- -- (--) -- (--) 0 0 0 0 0

Gráficas

Temp. máximas Temp. mínimas Temp. medias Precipitaciones Rachas de viento máximas Velocidades máximas media en intervalos de 10 minutos

Datos horarios

Fecha y hora oficial Temperatura (ºC) Velocidad del viento (km/h) Dirección del viento Racha (km/h) Dirección de racha Precipitación (mm) Presión (hPa) Tendencia (hPa) Humedad (%)
2020-11-26 23:00:00 5.4 0 Calma -- -- 0 -- -- 94
2020-11-26 22:00:00 5.5 0 Calma -- -- 0 -- -- 93
2020-11-26 21:00:00 5.4 3 Nordeste -- -- 0.2 -- -- 93
2020-11-26 20:00:00 6 5 Sudeste -- -- 3 -- -- 91
2020-11-26 19:00:00 6.3 2 Sudeste -- -- 4.6 -- -- 89
2020-11-26 18:00:00 7 4 Sur -- -- 0.6 -- -- 90
2020-11-26 17:00:00 7.3 9 Sur -- -- 2 -- -- 90
2020-11-26 16:00:00 8 7 Sur -- -- 0.2 -- -- 85
2020-11-26 15:00:00 8.6 12 Sur -- -- 0 -- -- 80
2020-11-26 14:00:00 8.6 6 Sur -- -- 0 -- -- 84
2020-11-26 13:00:00 8.2 10 Sur -- -- 0 -- -- 84
2020-11-26 12:00:00 8.1 5 Sur -- -- 0 -- -- 85
2020-11-26 11:00:00 7.8 5 Sudeste -- -- 0 -- -- 86
2020-11-26 10:00:00 7.5 5 Sudeste -- -- 0.4 -- -- 87
2020-11-26 09:00:00 7.6 7 Sur -- -- 0.6 -- -- 90
2020-11-26 08:00:00 7.8 5 Sur -- -- 1.4 -- -- 93
2020-11-26 07:00:00 8.3 0 Calma -- -- 1.4 -- -- 93
2020-11-26 06:00:00 8.5 0 Calma -- -- 0.4 -- -- 92
2020-11-26 05:00:00 8.6 3 Sur -- -- 0.2 -- -- 90
2020-11-26 04:00:00 8.3 5 Sur -- -- 0 -- -- 92
2020-11-26 03:00:00 8.4 2 Sur -- -- 1 -- -- 93
2020-11-26 02:00:00 8.6 4 Sur -- -- 13.4 -- -- 94
2020-11-26 01:00:00 9.3 7 Sur -- -- 7.2 -- -- 91
2020-11-26 00:00:00 10.7 13 Sur -- -- 0.4 -- -- 87
2020-11-25 23:00:00 10.3 12 Sur -- -- 0 -- -- 91
2020-11-25 22:00:00 9.2 5 Este -- -- 4 -- -- 95
2020-11-25 21:00:00 9 0 Calma -- -- 0.8 -- -- 93
2020-11-25 20:00:00 9.2 0 Calma -- -- 0.2 -- -- 92
2020-11-25 19:00:00 9.1 3 Sur -- -- 0.2 -- -- 91
2020-11-25 18:00:00 8.5 6 Este -- -- 2.8 -- -- 92
2020-11-25 17:00:00 9.2 4 Sur -- -- 10.4 -- -- 91
2020-11-25 16:00:00 11.3 0 Calma -- -- 0.8 -- -- 88
2020-11-25 15:00:00 12.7 8 Sur -- -- 0 -- -- 84
2020-11-25 14:00:00 11.7 3 Sur -- -- 1 -- -- 89
2020-11-25 13:00:00 13 16 Sur -- -- 0 -- -- 77
2020-11-25 12:00:00 12.9 17 Sur -- -- 0.2 -- -- 77
2020-11-25 11:00:00 12.5 14 Sur -- -- 0 -- -- 80
2020-11-25 10:00:00 11.6 13 Sur -- -- 0 -- -- 85
2020-11-25 09:00:00 -- 2 Sudoeste -- -- 0 -- -- --
2020-11-25 08:00:00 -- 9 Sur -- -- 0 -- -- --
2020-11-25 07:00:00 -- 3 Sur -- -- 0 -- -- --
2020-11-25 06:00:00 -- 0 Calma -- -- 0 -- -- --
2020-11-25 05:00:00 -- -- -- -- -- 0 -- -- --
2020-11-25 04:00:00 -- -- -- -- -- 0 -- -- --
2020-11-25 03:00:00 -- -- -- -- -- 0 -- -- --
2020-11-25 02:00:00 -- -- -- -- -- 0 -- -- --
2020-11-25 01:00:00 -- -- -- -- -- 0 -- -- --
2020-11-25 00:00:00 -- -- -- -- -- 0 -- -- --
2020-11-24 23:00:00 -- -- -- -- -- 0 -- -- --
2020-11-24 22:00:00 -- -- -- -- -- 0 -- -- --
2020-11-24 21:00:00 -- -- -- -- -- 0 -- -- --
2020-11-24 20:00:00 -- -- -- -- -- 0 -- -- --
2020-11-24 19:00:00 -- -- -- -- -- 0 -- -- --
2020-11-24 18:00:00 -- -- -- -- -- 0 -- -- --
2020-11-24 17:00:00 -- -- -- -- -- 0 -- -- --
2020-11-24 16:00:00 16.2 6 Sur -- -- 0 -- -- 58
2020-11-24 15:00:00 16.3 9 Sur -- -- 0 -- -- 60
2020-11-24 14:00:00 15.7 10 Sur -- -- 0 -- -- 61
2020-11-24 13:00:00 15.4 10 Sur -- -- 0 -- -- 60
2020-11-24 12:00:00 14.5 5 Noroeste -- -- 0 -- -- 65
2020-11-24 11:00:00 13.3 0 Calma -- -- 0 -- -- 70
2020-11-24 10:00:00 10.6 2 Noroeste -- -- 0 -- -- 75
2020-11-24 09:00:00 8.4 2 Norte -- -- 0 -- -- 83
2020-11-24 08:00:00 7.7 2 Norte -- -- 0 -- -- 82
2020-11-24 07:00:00 7.8 2 Noroeste -- -- 0 -- -- 78
2020-11-24 06:00:00 7.5 0 Calma -- -- 0 -- -- 77
2020-11-24 05:00:00 7.4 0 Calma -- -- 0 -- -- 74
2020-11-24 04:00:00 7.5 0 Calma -- -- 0 -- -- 68
2020-11-24 03:00:00 7.8 0 Calma -- -- 0 -- -- 60
2020-11-24 02:00:00 8.1 3 Oeste -- -- 0 -- -- 57
2020-11-24 01:00:00 8 3 Oeste -- -- 0 -- -- 54
2020-11-24 00:00:00 8.3 3 Oeste -- -- 0 -- -- 52
2020-11-23 23:00:00 8 3 Sudoeste -- -- 0 -- -- 57
2020-11-23 22:00:00 8.2 0 Calma -- -- 0 -- -- 64
2020-11-23 21:00:00 8.6 2 Oeste -- -- 0 -- -- 68
2020-11-23 20:00:00 9.3 3 Norte -- -- 0 -- -- 66
2020-11-23 19:00:00 10.4 0 Calma -- -- 0 -- -- 65
2020-11-23 18:00:00 12 6 Sur -- -- 0 -- -- 56
2020-11-23 17:00:00 14 9 Sur -- -- 0 -- -- 54
2020-11-23 16:00:00 15.4 10 Sur -- -- 0 -- -- 50
2020-11-23 15:00:00 16.2 10 Sur -- -- 0 -- -- 44
2020-11-23 14:00:00 16 9 Sur -- -- 0 -- -- 44
2020-11-23 13:00:00 15.2 13 Sudeste -- -- 0 -- -- 46
2020-11-23 12:00:00 14.3 7 Sur -- -- 0 -- -- 48
2020-11-23 11:00:00 12.4 3 Oeste -- -- 0 -- -- 64
2020-11-23 10:00:00 10.4 2 Noroeste -- -- 0 -- -- 66
2020-11-23 09:00:00 7.7 3 Sudoeste -- -- 0 -- -- 72
2020-11-23 08:00:00 7.1 0 Calma -- -- 0 -- -- 73
2020-11-23 07:00:00 6.7 2 Norte -- -- 0 -- -- 77
2020-11-23 06:00:00 6.5 0 Calma -- -- 0 -- -- 77
2020-11-23 05:00:00 6.6 2 Noroeste -- -- 0 -- -- 77
2020-11-23 04:00:00 6.8 0 Calma -- -- 0 -- -- 75
2020-11-23 03:00:00 7 2 Nordeste -- -- 0 -- -- 74
2020-11-23 02:00:00 7.1 2 Norte -- -- 0 -- -- 69
2020-11-23 01:00:00 7.4 0 Calma -- -- 0 -- -- 66
2020-11-23 00:00:00 7.7 3 Norte -- -- 0 -- -- 65
2020-11-22 23:00:00 8.3 3 Norte -- -- 0 -- -- 62
2020-11-22 22:00:00 8.8 0 Calma -- -- 0 -- -- 55
2020-11-22 21:00:00 9.7 4 Sudeste -- -- 0 -- -- 50
2020-11-22 20:00:00 9.9 5 Sudeste -- -- 0 -- -- 59
2020-11-22 19:00:00 10.8 6 Sudeste -- -- 0 -- -- 61
2020-11-22 18:00:00 12 7 Sudeste -- -- 0 -- -- 64
2020-11-22 17:00:00 14.1 11 Sur -- -- 0 -- -- 60
2020-11-22 16:00:00 15 12 Sur -- -- 0 -- -- 57
2020-11-22 15:00:00 15.5 12 Sur -- -- 0 -- -- 54
2020-11-22 14:00:00 15 14 Sur -- -- 0 -- -- 53
2020-11-22 13:00:00 14.4 15 Sur -- -- 0 -- -- 56
2020-11-22 12:00:00 13.7 14 Sur -- -- 0 -- -- 64
2020-11-22 11:00:00 13 14 Sur -- -- 0 -- -- 66
2020-11-22 10:00:00 11.6 13 Sur -- -- 0 -- -- 67
2020-11-22 09:00:00 9.8 13 Sur -- -- 0 -- -- 73
2020-11-22 08:00:00 9.5 13 Sur -- -- 0 -- -- 70
2020-11-22 07:00:00 9.6 13 Sur -- -- 0 -- -- 74
2020-11-22 06:00:00 10 15 Sur -- -- 0 -- -- 73
2020-11-22 05:00:00 9.9 18 Sur -- -- 0 -- -- 68
2020-11-22 04:00:00 10.3 17 Sur -- -- 0 -- -- 71
2020-11-22 03:00:00 10.6 16 Sur -- -- 0 -- -- 71
2020-11-22 02:00:00 10.8 17 Sur -- -- 0 -- -- 74
2020-11-22 01:00:00 11 17 Sur -- -- 0 -- -- 76
2020-11-22 00:00:00 11.2 16 Sur -- -- 0 -- -- 73
2020-11-21 23:00:00 11.3 17 Sur -- -- 0 -- -- 72
2020-11-21 22:00:00 11.6 9 Sur -- -- 0 -- -- 71
2020-11-21 21:00:00 11.5 7 Sur -- -- 0 -- -- 71
2020-11-21 20:00:00 11.5 8 Sudeste -- -- 0 -- -- 72
2020-11-21 19:00:00 11.7 3 Sudeste -- -- 0 -- -- 73
2020-11-21 18:00:00 12.3 13 Sur -- -- 0 -- -- 68
2020-11-21 17:00:00 14 12 Sudeste -- -- 0 -- -- 65
2020-11-21 16:00:00 14.6 13 Sur -- -- 0 -- -- 62
2020-11-21 15:00:00 14.9 16 Sur -- -- 0 -- -- 68
2020-11-21 14:00:00 -- 12 Sur -- -- 0 -- -- --
2020-11-21 13:00:00 -- 14 Sur -- -- 0 -- -- --
2020-11-21 12:00:00 -- 11 Sur -- -- 0 -- -- --
2020-11-21 11:00:00 -- 12 Sur -- -- 0 -- -- --
2020-11-21 10:00:00 -- -- -- -- -- 0 -- -- --
2020-11-21 09:00:00 -- -- -- -- -- 0 -- -- --
2020-11-21 08:00:00 -- -- -- -- -- 0 -- -- --
2020-11-21 07:00:00 -- -- -- -- -- 0 -- -- --
2020-11-21 06:00:00 -- -- -- -- -- 0 -- -- --
2020-11-21 05:00:00 -- -- -- -- -- 0 -- -- --
2020-11-21 04:00:00 -- -- -- -- -- 0 -- -- --
2020-11-21 03:00:00 -- -- -- -- -- 0 -- -- --
2020-11-21 02:00:00 -- -- -- -- -- 0 -- -- --
2020-11-21 01:00:00 -- -- -- -- -- 0 -- -- --
2020-11-21 00:00:00 -- -- -- -- -- 0 -- -- --
2020-11-20 23:00:00 -- -- -- -- -- 0 -- -- --
2020-11-20 22:00:00 -- -- -- -- -- 0 -- -- --
2020-11-20 21:00:00 -- -- -- -- -- 0 -- -- --
2020-11-20 20:00:00 -- -- -- -- -- 0 -- -- --
2020-11-20 19:00:00 -- -- -- -- -- 0 -- -- --
2020-11-20 18:00:00 -- 0 Calma -- -- 0 -- -- --
2020-11-20 17:00:00 -- 4 Norte -- -- 0 -- -- --
2020-11-20 16:00:00 -- 4 Oeste -- -- 0 -- -- --
2020-11-20 15:00:00 21.5 4 Norte -- -- 0 -- -- 43
2020-11-20 14:00:00 20.8 3 Oeste -- -- 0 -- -- 51
2020-11-20 13:00:00 18.6 2 Noroeste -- -- 0 -- -- 53
2020-11-20 12:00:00 17.4 4 Noroeste -- -- 0 -- -- 64
2020-11-20 11:00:00 15.6 2 Oeste -- -- 0 -- -- 68
2020-11-20 10:00:00 13.2 0 Calma -- -- 0 -- -- 78
2020-11-20 09:00:00 10.8 5 Norte -- -- 0 -- -- 85
2020-11-20 08:00:00 10.4 0 Calma -- -- 0 -- -- 81
2020-11-20 07:00:00 10.6 0 Calma -- -- 0 -- -- 80
2020-11-20 06:00:00 11.7 7 Nordeste -- -- 0 -- -- 77
2020-11-20 05:00:00 12.6 4 Nordeste -- -- 0 -- -- 74
2020-11-20 04:00:00 13.2 8 Sudeste -- -- 0 -- -- 69
2020-11-20 03:00:00 11.2 4 Sur -- -- 0 -- -- 81
2020-11-20 02:00:00 10.6 0 Calma -- -- 0 -- -- 87
2020-11-20 01:00:00 10.7 0 Calma -- -- 0 -- -- 87
2020-11-20 00:00:00 11.2 0 Calma -- -- 0 -- -- 85
2020-11-19 23:00:00 11.6 0 Calma -- -- 0 -- -- 83
2020-11-19 22:00:00 12.4 0 Calma -- -- 0 -- -- 81
2020-11-19 21:00:00 13.7 3 Norte -- -- 0 -- -- 72
2020-11-19 20:00:00 14.2 3 Este -- -- 0 -- -- 67
2020-11-19 19:00:00 -- -- -- -- -- 0 -- -- --
2020-11-19 18:00:00 -- -- -- -- -- 0 -- -- --
2020-11-19 17:00:00 19.4 4 Sudeste -- -- 0 -- -- 56
2020-11-19 16:00:00 -- -- -- -- -- 0 -- -- --
2020-11-19 15:00:00 21.4 7 Sur -- -- 0 -- -- 51
2020-11-19 14:00:00 21.6 5 Sur -- -- 0 -- -- 52
2020-11-19 13:00:00 20.2 4 Sudoeste -- -- 0 -- -- 60
2020-11-19 12:00:00 18.2 0 Calma -- -- 0 -- -- 67
2020-11-19 11:00:00 16.5 2 Noroeste -- -- 0 -- -- 73
2020-11-19 10:00:00 13.8 0 Calma -- -- 0 -- -- 76
2020-11-19 09:00:00 10.9 0 Calma -- -- 0 -- -- 83
2020-11-19 08:00:00 10.5 0 Calma -- -- 0 -- -- 85
2020-11-19 07:00:00 10.8 0 Calma -- -- 0 -- -- 80
2020-11-19 06:00:00 10.4 0 Calma -- -- 0 -- -- 89
2020-11-19 05:00:00 10 0 Calma -- -- 0 -- -- 97
2020-11-19 04:00:00 9.7 0 Calma -- -- 0 -- -- 97
2020-11-19 03:00:00 10 0 Calma -- -- 0 -- -- 96
2020-11-19 02:00:00 10.5 0 Calma -- -- 0 -- -- 96
2020-11-19 01:00:00 10.7 0 Calma -- -- 0 -- -- 96
2020-11-19 00:00:00 11 0 Calma -- -- 0 -- -- 95
2020-11-18 23:00:00 11.5 0 Calma -- -- 0 -- -- 94
2020-11-18 22:00:00 12.7 0 Calma -- -- 0 -- -- 92
2020-11-18 21:00:00 13.6 0 Calma -- -- 0 -- -- 89
2020-11-18 20:00:00 14.7 2 Norte -- -- 0 -- -- 86
2020-11-18 19:00:00 16.2 2 Noroeste -- -- 0 -- -- 80
2020-11-18 18:00:00 19.5 2 Nordeste -- -- 0 -- -- 68
2020-11-18 17:00:00 21.6 3 Noroeste -- -- 0 -- -- 57
2020-11-18 16:00:00 21.7 4 Norte -- -- 0 -- -- 60
2020-11-18 15:00:00 21.4 6 Noroeste -- -- 0 -- -- 59
2020-11-18 14:00:00 20.7 3 Oeste -- -- 0 -- -- 59
2020-11-18 13:00:00 17.9 4 Noroeste -- -- 0 -- -- 68
2020-11-18 12:00:00 15.1 3 Oeste -- -- 0 -- -- 78
2020-11-18 11:00:00 13.8 3 Noroeste -- -- 0 -- -- 78
2020-11-18 10:00:00 12.4 0 Calma -- -- 0 -- -- 73
2020-11-18 09:00:00 10.7 0 Calma -- -- 0 -- -- 76
2020-11-18 08:00:00 10.8 0 Calma -- -- 0 -- -- 74
2020-11-18 07:00:00 12 0 Calma -- -- 0 -- -- 58
2020-11-18 06:00:00 13 0 Calma -- -- 0 -- -- 53
2020-11-18 05:00:00 13.6 5 Este -- -- 0 -- -- 50
2020-11-18 04:00:00 13.9 5 Este -- -- 0 -- -- 49
2020-11-18 03:00:00 13.3 5 Este -- -- 0 -- -- 53
2020-11-18 02:00:00 13.5 5 Este -- -- 0 -- -- 54
2020-11-18 01:00:00 13.3 0 Calma -- -- 0 -- -- 64
2020-11-18 00:00:00 13.6 3 Este -- -- 0 -- -- 67
2020-11-17 23:00:00 13.4 4 Este -- -- 0 -- -- 78
2020-11-17 22:00:00 14.2 0 Calma -- -- 0 -- -- 83
2020-11-17 21:00:00 15.4 3 Este -- -- 0 -- -- 77
2020-11-17 20:00:00 16.2 3 Este -- -- 0 -- -- 75
2020-11-17 19:00:00 17.6 0 Calma -- -- 0 -- -- 75
2020-11-17 18:00:00 19.9 4 Oeste -- -- 0 -- -- 67
2020-11-17 17:00:00 22.2 6 Oeste -- -- 0 -- -- 59
2020-11-17 16:00:00 23.1 11 Noroeste -- -- 0 -- -- 50
2020-11-17 15:00:00 23.5 10 Noroeste -- -- 0 -- -- 44
2020-11-17 14:00:00 23.5 6 Noroeste -- -- 0 -- -- 43
2020-11-17 13:00:00 21.7 4 Oeste -- -- 0 -- -- 55
2020-11-17 12:00:00 20.3 3 Oeste -- -- 0 -- -- 56
2020-11-17 11:00:00 18.9 2 Noroeste -- -- 0 -- -- 60
2020-11-17 10:00:00 16.1 0 Calma -- -- 0 -- -- 63
2020-11-17 09:00:00 13 4 Sudoeste -- -- 0 -- -- 69
2020-11-17 08:00:00 12.1 5 Este -- -- 0 -- -- 68
2020-11-17 07:00:00 12.4 6 Este -- -- 0 -- -- 65
2020-11-17 06:00:00 12.5 4 Este -- -- 0 -- -- 67
2020-11-17 05:00:00 12.7 4 Sudeste -- -- 0 -- -- 68
2020-11-17 04:00:00 13.1 4 Este -- -- 0 -- -- 69
2020-11-17 03:00:00 13.2 5 Este -- -- 0 -- -- 65
2020-11-17 02:00:00 13.3 5 Este -- -- 0 -- -- 62
2020-11-17 01:00:00 13.4 4 Este -- -- 0 -- -- 60
2020-11-17 00:00:00 13.4 5 Este -- -- 0 -- -- 63
2020-11-16 23:00:00 14 5 Este -- -- 0 -- -- 64
2020-11-16 22:00:00 14.2 4 Este -- -- 0 -- -- 73
2020-11-16 21:00:00 15.2 5 Este -- -- 0 -- -- 73
2020-11-16 20:00:00 16.1 4 Este -- -- 0 -- -- 71
2020-11-16 19:00:00 17.1 3 Norte -- -- 0 -- -- 67
2020-11-16 18:00:00 19.1 3 Norte -- -- 0 -- -- 61
2020-11-16 17:00:00 -- -- -- -- -- 0 -- -- --
2020-11-16 16:00:00 22.3 8 Noroeste -- -- 0 -- -- 51
2020-11-16 15:00:00 22.6 9 Noroeste -- -- 0 -- -- 48
2020-11-16 14:00:00 22.7 11 Noroeste -- -- 0 -- -- 48
2020-11-16 13:00:00 22.2 9 Noroeste -- -- 0 -- -- 46
2020-11-16 12:00:00 21.5 4 Oeste -- -- 0 -- -- 47
2020-11-16 11:00:00 20.2 0 Calma -- -- 0 -- -- 48
2020-11-16 10:00:00 17.1 0 Calma -- -- 0 -- -- 57
2020-11-16 09:00:00 15.4 3 Este -- -- 0 -- -- 57
2020-11-16 08:00:00 14.7 5 Este -- -- 0 -- -- 58
2020-11-16 07:00:00 14.7 0 Calma -- -- 0 -- -- 60
2020-11-16 06:00:00 14.9 5 Este -- -- 0 -- -- 60
2020-11-16 05:00:00 15.7 0 Calma -- -- 0 -- -- 61
2020-11-16 04:00:00 16.4 2 Sudoeste -- -- 0 -- -- 60
2020-11-16 03:00:00 16.6 3 Oeste -- -- 0 -- -- 61
2020-11-16 02:00:00 17.2 4 Sudoeste -- -- 0 -- -- 56
2020-11-16 01:00:00 17.1 2 Norte -- -- 0 -- -- 62
2020-11-16 00:00:00 17.6 5 Sur -- -- 0 -- -- 58
2020-11-15 23:00:00 17.4 3 Nordeste -- -- 0 -- -- 61
2020-11-15 22:00:00 17.1 2 Noroeste -- -- 0 -- -- 67
2020-11-15 21:00:00 17.2 3 Sur -- -- 0 -- -- 66
2020-11-15 20:00:00 17.4 0 Calma -- -- 0 -- -- 70
2020-11-15 19:00:00 18.7 5 Sur -- -- 0 -- -- 60
2020-11-15 18:00:00 19.6 5 Sur -- -- 0 -- -- 61
2020-11-15 17:00:00 22.1 6 Sur -- -- 0 -- -- 56
2020-11-15 16:00:00 23 6 Noroeste -- -- 0 -- -- 55
2020-11-15 15:00:00 22.9 6 Sudoeste -- -- 0 -- -- 55
2020-11-15 14:00:00 22.4 5 Sudoeste -- -- 0 -- -- 58
2020-11-15 13:00:00 19.8 0 Calma -- -- 0 -- -- 71
2020-11-15 12:00:00 19.3 2 Sudoeste -- -- 0 -- -- 66
2020-11-15 11:00:00 18.3 2 Oeste -- -- 0 -- -- 69
2020-11-15 10:00:00 15.7 0 Calma -- -- 0 -- -- 82
2020-11-15 09:00:00 12.6 0 Calma -- -- 0 -- -- 88
2020-11-15 08:00:00 11.8 0 Calma -- -- 0.2 -- -- 89
2020-11-15 07:00:00 11.8 4 Este -- -- 0 -- -- 89
2020-11-15 06:00:00 11.7 3 Este -- -- 0 -- -- 93
2020-11-15 05:00:00 11.7 0 Calma -- -- 0 -- -- 93
2020-11-15 04:00:00 11.3 4 Este -- -- 0 -- -- 92
2020-11-15 03:00:00 11.7 0 Calma -- -- 0 -- -- 91
2020-11-15 02:00:00 11.7 4 Este -- -- 0 -- -- 90
2020-11-15 01:00:00 12.1 0 Calma -- -- 0 -- -- 92
2020-11-15 00:00:00 12.7 4 Este -- -- 0 -- -- 93
2020-11-14 23:00:00 13.1 4 Este -- -- 0 -- -- 93
2020-11-14 22:00:00 13.4 2 Este -- -- 0 -- -- 94
2020-11-14 21:00:00 13.8 0 Calma -- -- 0 -- -- 93
2020-11-14 20:00:00 14.3 0 Calma -- -- 0 -- -- 92
2020-11-14 19:00:00 14.7 4 Noroeste -- -- 0.2 -- -- 90
2020-11-14 18:00:00 15.8 3 Oeste -- -- 0 -- -- 81
2020-11-14 17:00:00 16.3 5 Sudeste -- -- 0 -- -- 77
2020-11-14 16:00:00 17.2 6 Sur -- -- 0 -- -- 73
2020-11-14 15:00:00 16.7 5 Sur -- -- 0 -- -- 77
2020-11-14 14:00:00 16.4 10 Sur -- -- 0 -- -- 77
2020-11-14 13:00:00 15.3 7 Sur -- -- 0 -- -- 83
2020-11-14 12:00:00 14.4 13 Sur -- -- 0 -- -- 85
2020-11-14 11:00:00 13.7 10 Sur -- -- 0.2 -- -- 88
2020-11-14 10:00:00 13.4 10 Sur -- -- 1.4 -- -- 90
2020-11-14 09:00:00 13.8 8 Sur -- -- 0 -- -- 87
2020-11-14 08:00:00 13.6 5 Sur -- -- 0 -- -- 88
2020-11-14 07:00:00 13.4 6 Sur -- -- 0 -- -- 88
2020-11-14 06:00:00 13.4 3 Sur -- -- 0 -- -- 86
2020-11-14 05:00:00 13.8 3 Sur -- -- 0 -- -- 83
2020-11-14 04:00:00 13.9 3 Sur -- -- 0 -- -- 79
2020-11-14 03:00:00 13.6 4 Sudoeste -- -- 0 -- -- 83
2020-11-14 02:00:00 14.1 7 Sur -- -- 0 -- -- 76
2020-11-14 01:00:00 13.6 3 Sudoeste -- -- 0 -- -- 83
2020-11-14 00:00:00 13.5 2 Sudoeste -- -- 0 -- -- 84
2020-11-13 23:00:00 13.5 0 Calma -- -- 0 -- -- 87
2020-11-13 22:00:00 13.9 0 Calma -- -- 0 -- -- 83
2020-11-13 21:00:00 14.1 3 Sur -- -- 0 -- -- 84
2020-11-13 20:00:00 14.4 4 Sur -- -- 0 -- -- 41
2020-11-13 19:00:00 14.9 0 Calma -- -- 0 -- -- 83
2020-11-13 18:00:00 15.3 2 Sudoeste -- -- 0 -- -- 78
2020-11-13 17:00:00 16.2 6 Sur -- -- 0 -- -- 74
2020-11-13 16:00:00 -- -- -- -- -- 0 -- -- --
2020-11-13 15:00:00 18.1 6 Sur -- -- 0 -- -- 67
2020-11-13 14:00:00 17.1 6 Sur -- -- 0 -- -- 68
2020-11-13 13:00:00 17.7 9 Sur -- -- 0 -- -- 63
2020-11-13 12:00:00 18.2 5 Sur -- -- 0 -- -- 61
2020-11-13 11:00:00 16.5 3 Sudoeste -- -- 0 -- -- 71
2020-11-13 10:00:00 14.5 3 Noroeste -- -- 0 -- -- 77
2020-11-13 09:00:00 12.3 0 Calma -- -- 0 -- -- 82
2020-11-13 08:00:00 12.2 3 Norte -- -- 0 -- -- 82
2020-11-13 07:00:00 12.2 2 Norte -- -- 0 -- -- 82
2020-11-13 06:00:00 12.4 0 Calma -- -- 0 -- -- 80
2020-11-13 05:00:00 12.5 4 Este -- -- 0 -- -- 80
2020-11-13 04:00:00 12.3 3 Sudeste -- -- 0 -- -- 79
2020-11-13 03:00:00 12.6 4 Nordeste -- -- 0 -- -- 77
2020-11-13 02:00:00 12.4 3 Norte -- -- 0 -- -- 76
2020-11-13 01:00:00 12.7 3 Sur -- -- 0 -- -- 75
2020-11-13 00:00:00 13.1 2 Norte -- -- 0 -- -- 76
2020-11-12 23:00:00 13.3 10 Sur -- -- 0 -- -- 76
2020-11-12 22:00:00 12.9 9 Sur -- -- 0 -- -- 78
2020-11-12 21:00:00 13.2 11 Sur -- -- 0 -- -- 75
2020-11-12 20:00:00 13.4 11 Sur -- -- 0 -- -- 73
2020-11-12 19:00:00 13.7 13 Sur -- -- 0 -- -- 72
2020-11-12 18:00:00 14.2 11 Sur -- -- 0 -- -- 72
2020-11-12 17:00:00 15 12 Sur -- -- 0 -- -- 70
2020-11-12 16:00:00 15.8 10 Sur -- -- 0 -- -- 68
2020-11-12 15:00:00 17.5 14 Sur -- -- 0 -- -- 61
2020-11-12 14:00:00 18 14 Sur -- -- 0 -- -- 60
2020-11-12 13:00:00 16.1 13 Sur -- -- 0 -- -- 64
2020-11-12 12:00:00 16.5 13 Sur -- -- 0 -- -- 64
2020-11-12 11:00:00 15.3 12 Sur -- -- 0 -- -- 67
2020-11-12 10:00:00 13.5 9 Sur -- -- 0 -- -- 74
2020-11-12 09:00:00 12.2 12 Sur -- -- 0 -- -- 77
2020-11-12 08:00:00 11.7 11 Sur -- -- 0 -- -- 78
2020-11-12 07:00:00 11.7 10 Sur -- -- 0 -- -- 75
2020-11-12 06:00:00 11.9 14 Sur -- -- 0 -- -- 73
2020-11-12 05:00:00 11.9 13 Sur -- -- 0 -- -- 76
2020-11-12 04:00:00 12.1 12 Sur -- -- 0 -- -- 75
2020-11-12 03:00:00 12.2 12 Sur -- -- 0 -- -- 76
2020-11-12 02:00:00 -- -- -- -- -- 0 -- -- --
2020-11-12 01:00:00 12 12 Sur -- -- 0 -- -- 71
2020-11-12 00:00:00 11.7 7 Sudeste -- -- 0 -- -- 74
2020-11-11 23:00:00 11.6 5 Sudeste -- -- 0 -- -- 73
2020-11-11 22:00:00 -- -- -- -- -- 0 -- -- --
2020-11-11 21:00:00 -- -- -- -- -- 0 -- -- --
2020-11-11 20:00:00 -- -- -- -- -- 0 -- -- --
2020-11-11 19:00:00 -- 5 Sudeste -- -- 0 -- -- --
2020-11-11 18:00:00 -- -- -- -- -- 0 -- -- --
2020-11-11 17:00:00 15.2 10 Sur -- -- 0 -- -- 63
2020-11-11 16:00:00 16.8 12 Sur -- -- 0 -- -- 35
2020-11-11 15:00:00 -- 15 Sur -- -- 0 -- -- --
2020-11-11 14:00:00 -- 17 Sur -- -- 0 -- -- --
2020-11-11 13:00:00 16.3 17 Sudeste -- -- 0 -- -- 63
2020-11-11 12:00:00 15.8 17 Sur -- -- 0 -- -- 64
2020-11-11 11:00:00 15.1 16 Sur -- -- 0 -- -- 66
2020-11-11 10:00:00 14.2 15 Sur -- -- 0 -- -- 68
2020-11-11 09:00:00 12.6 15 Sur -- -- 0 -- -- 73
2020-11-11 08:00:00 11.7 4 Sudeste -- -- 0 -- -- 73
2020-11-11 07:00:00 12 8 Sudeste -- -- 0 -- -- 75
2020-11-11 06:00:00 12.3 9 Sudeste -- -- 0 -- -- 73
2020-11-11 05:00:00 12.3 5 Sudeste -- -- 0 -- -- 71
2020-11-11 04:00:00 12.5 9 Sudeste -- -- 0 -- -- 70
2020-11-11 03:00:00 12.4 9 Sur -- -- 0 -- -- 69
2020-11-11 02:00:00 12.6 9 Sur -- -- 0 -- -- 70
2020-11-11 01:00:00 12.9 11 Sur -- -- 0 -- -- 75
2020-11-11 00:00:00 12.9 9 Sur -- -- 0 -- -- 73
2020-11-10 23:00:00 12.5 5 Sudeste -- -- 0 -- -- 74
2020-11-10 22:00:00 12.3 4 Este -- -- 0 -- -- 73
2020-11-10 21:00:00 12.3 4 Este -- -- 0 -- -- 75
2020-11-10 20:00:00 13 5 Este -- -- 0 -- -- 75
2020-11-10 19:00:00 -- 5 Este -- -- 0 -- -- --
2020-11-10 18:00:00 -- -- -- -- -- 0 -- -- --
2020-11-10 17:00:00 -- -- -- -- -- 0 -- -- --
2020-11-10 16:00:00 19.6 5 Sur -- -- 0 -- -- 55
2020-11-10 15:00:00 17.5 3 Sur -- -- 0 -- -- 60
2020-11-10 14:00:00 17.1 0 Calma -- -- 0 -- -- 59
2020-11-10 13:00:00 16.7 4 Oeste -- -- 0 -- -- 63
2020-11-10 12:00:00 15.5 3 Noroeste -- -- 0 -- -- 67
2020-11-10 11:00:00 13.9 3 Oeste -- -- 0 -- -- 69
2020-11-10 10:00:00 11.6 2 Noroeste -- -- 0 -- -- 83
2020-11-10 09:00:00 8 4 Este -- -- 0 -- -- 90
2020-11-10 08:00:00 7.4 2 Sudeste -- -- 0 -- -- 92
2020-11-10 07:00:00 7.5 4 Sudeste -- -- 0 -- -- 90
2020-11-10 06:00:00 7.9 0 Calma -- -- 0 -- -- 89
2020-11-10 05:00:00 8 3 Este -- -- 0 -- -- 87
2020-11-10 04:00:00 8.6 2 Nordeste -- -- 0 -- -- 89
2020-11-10 03:00:00 9.1 2 Nordeste -- -- 0 -- -- 88
2020-11-10 02:00:00 9.3 0 Calma -- -- 0 -- -- 89
2020-11-10 01:00:00 9.6 2 Este -- -- 0 -- -- 90
2020-11-10 00:00:00 10 3 Este -- -- 0 -- -- 88
2020-11-09 23:00:00 10.7 4 Este -- -- 0 -- -- 88
2020-11-09 22:00:00 11.5 3 Este -- -- 0 -- -- 87
2020-11-09 21:00:00 12.4 0 Calma -- -- 0 -- -- 83
2020-11-09 20:00:00 13.2 2 Nordeste -- -- 0 -- -- 79
2020-11-09 19:00:00 13.6 0 Calma -- -- 0 -- -- 77
2020-11-09 18:00:00 15.4 4 Noroeste -- -- 0 -- -- 72
2020-11-09 17:00:00 17.3 6 Noroeste -- -- 0 -- -- 67
2020-11-09 16:00:00 16.8 5 Noroeste -- -- 0 -- -- 63
2020-11-09 15:00:00 16.7 8 Noroeste -- -- 0 -- -- 66
2020-11-09 14:00:00 16.7 3 Noroeste -- -- 0 -- -- 71
2020-11-09 13:00:00 17 5 Noroeste -- -- 0 -- -- 74
2020-11-09 12:00:00 14.4 3 Oeste -- -- 0 -- -- 86
2020-11-09 11:00:00 12.7 5 Sudeste -- -- 0.4 -- -- 91
2020-11-09 10:00:00 12.5 4 Noroeste -- -- 0 -- -- 84
2020-11-09 09:00:00 11.8 4 Sudoeste -- -- 0 -- -- 86
2020-11-09 08:00:00 11.3 5 Sur -- -- 0 -- -- 85
2020-11-09 07:00:00 11.6 4 Sur -- -- 0 -- -- 82
2020-11-09 06:00:00 11.8 2 Sudeste -- -- 0 -- -- 80
2020-11-09 05:00:00 11.9 4 Sudeste -- -- 0 -- -- 80
2020-11-09 04:00:00 11.5 2 Sur -- -- 0 -- -- 82
2020-11-09 03:00:00 11.6 6 Sur -- -- 0 -- -- 82
2020-11-09 02:00:00 11.2 0 Calma -- -- 0 -- -- 83
2020-11-09 01:00:00 10.8 4 Este -- -- 0 -- -- 84
2020-11-09 00:00:00 11.2 2 Sudeste -- -- 0 -- -- 84
2020-11-08 23:00:00 11.5 2 Sudeste -- -- 0 -- -- 84
2020-11-08 22:00:00 11.8 2 Sudeste -- -- 0 -- -- 82
2020-11-08 21:00:00 12.3 0 Calma -- -- 0 -- -- 80
2020-11-08 20:00:00 13.3 3 Sudoeste -- -- 0 -- -- 76
2020-11-08 19:00:00 14.6 6 Sur -- -- 0 -- -- 67
2020-11-08 18:00:00 16 5 Sur -- -- 0 -- -- 62
2020-11-08 17:00:00 17.1 5 Sur -- -- 0 -- -- 58
2020-11-08 16:00:00 18 7 Sur -- -- 0 -- -- 58
2020-11-08 15:00:00 18.8 5 Oeste -- -- 0 -- -- 56
2020-11-08 14:00:00 18.2 10 Sur -- -- 0 -- -- 56
2020-11-08 13:00:00 17.7 9 Sur -- -- 0 -- -- 59
2020-11-08 12:00:00 17 9 Sur -- -- 0 -- -- 68
2020-11-08 11:00:00 14.8 3 Sudoeste -- -- 0 -- -- 74
2020-11-08 10:00:00 13.2 3 Oeste -- -- 0 -- -- 82
2020-11-08 09:00:00 11.3 0 Calma -- -- 0 -- -- 88
2020-11-08 08:00:00 10.8 0 Calma -- -- 0 -- -- 86
2020-11-08 07:00:00 11 0 Calma -- -- 0 -- -- 84
2020-11-08 06:00:00 10.8 0 Calma -- -- 0 -- -- 87
2020-11-08 05:00:00 11 3 Este -- -- 0 -- -- 85
2020-11-08 04:00:00 11.1 0 Calma -- -- 0 -- -- 85
2020-11-08 03:00:00 11.8 4 Sudeste -- -- 0 -- -- 82
2020-11-08 02:00:00 11.5 3 Sudeste -- -- 0 -- -- 83
2020-11-08 01:00:00 11.6 3 Este -- -- 0 -- -- 81
2020-11-08 00:00:00 10.8 3 Sudeste -- -- 0 -- -- 82
2020-11-07 23:00:00 10.9 4 Este -- -- 0 -- -- 84
2020-11-07 22:00:00 11.1 4 Sudeste -- -- 0 -- -- 84
2020-11-07 21:00:00 11.9 2 Sudeste -- -- 0 -- -- 81
2020-11-07 20:00:00 12.8 3 Sur -- -- 0 -- -- 77
2020-11-07 19:00:00 13.7 3 Sur -- -- 0 -- -- 74
2020-11-07 18:00:00 15.4 3 Este -- -- 0 -- -- 67
2020-11-07 17:00:00 16.9 6 Oeste -- -- 0 -- -- 61
2020-11-07 16:00:00 17.1 5 Sur -- -- 0 -- -- 65
2020-11-07 15:00:00 16.3 5 Este -- -- 0 -- -- 64
2020-11-07 14:00:00 17.2 8 Sur -- -- 0 -- -- 61
2020-11-07 13:00:00 16.6 7 Sur -- -- 0 -- -- 63
2020-11-07 12:00:00 14.4 6 Sur -- -- 0 -- -- 68
2020-11-07 11:00:00 13.3 4 Este -- -- 0 -- -- 77
2020-11-07 10:00:00 12.7 8 Sur -- -- 0 -- -- 78
2020-11-07 09:00:00 12 7 Sudeste -- -- 0.2 -- -- 88
2020-11-07 08:00:00 12.1 6 Sur -- -- 0 -- -- 87
2020-11-07 07:00:00 12.4 12 Sur -- -- 0 -- -- 83
2020-11-07 06:00:00 12.3 17 Sur -- -- 0 -- -- 84
2020-11-07 05:00:00 12.5 26 Sur -- -- 1.8 -- -- 88
2020-11-07 04:00:00 12.7 18 Sur -- -- 1.4 -- -- 78
2020-11-07 03:00:00 12.9 12 Sur -- -- 0.2 -- -- 86
2020-11-07 02:00:00 12.9 13 Sur -- -- 0.6 -- -- 85
2020-11-07 01:00:00 13.9 23 Sur -- -- 0 -- -- 75
2020-11-07 00:00:00 13.9 23 Sur -- -- 0 -- -- 73
2020-11-06 23:00:00 14 21 Sur -- -- 0 -- -- 74
2020-11-06 22:00:00 13 12 Sur -- -- 1.8 -- -- 82
2020-11-06 21:00:00 14.7 13 Sur -- -- 0.8 -- -- 69
2020-11-06 20:00:00 16.7 4 Sudoeste -- -- 0 -- -- 59
2020-11-06 19:00:00 17.3 3 Norte -- -- 0 -- -- 55
2020-11-06 18:00:00 18 3 Sudoeste -- -- 0 -- -- 51
2020-11-06 17:00:00 18.8 9 Sur -- -- 0 -- -- 51
2020-11-06 16:00:00 19.9 12 Sur -- -- 0 -- -- 45
2020-11-06 15:00:00 20.4 18 Sur -- -- 0 -- -- 45
2020-11-06 14:00:00 20.2 18 Sur -- -- 0 -- -- 44
2020-11-06 13:00:00 20.4 18 Sur -- -- 0 -- -- 43
2020-11-06 12:00:00 20.7 16 Sudeste -- -- 0 -- -- 42
2020-11-06 11:00:00 19.7 15 Sur -- -- 0 -- -- 45
2020-11-06 10:00:00 18.7 17 Sudeste -- -- 0 -- -- 48
2020-11-06 09:00:00 17.7 16 Sudeste -- -- 0 -- -- 51
2020-11-06 08:00:00 17.4 17 Sudeste -- -- 0 -- -- 52
2020-11-06 07:00:00 17.3 13 Sudeste -- -- 0 -- -- 52
2020-11-06 06:00:00 17.6 14 Sudeste -- -- 0 -- -- 51
2020-11-06 05:00:00 17.6 9 Sur -- -- 0 -- -- 48
2020-11-06 04:00:00 18.3 13 Sudeste -- -- 0 -- -- 41
2020-11-06 03:00:00 15 3 Norte -- -- 0 -- -- 54
2020-11-06 02:00:00 14.6 5 Nordeste -- -- 0 -- -- 63
2020-11-06 01:00:00 14.9 5 Sudoeste -- -- 0 -- -- 62
2020-11-06 00:00:00 15.4 5 Sur -- -- 0 -- -- 61
2020-11-05 23:00:00 15.8 12 Sudeste -- -- 0 -- -- 58
2020-11-05 22:00:00 15.1 13 Sudeste -- -- 0 -- -- 63
2020-11-05 21:00:00 15.4 15 Sudeste -- -- 0 -- -- 62
2020-11-05 20:00:00 15.4 15 Sudeste -- -- 0 -- -- 63
2020-11-05 19:00:00 14.7 12 Sur -- -- 0 -- -- 71
2020-11-05 18:00:00 15.2 10 Sudeste -- -- 0 -- -- 69
2020-11-05 17:00:00 16 12 Sudeste -- -- 0 -- -- 66
2020-11-05 16:00:00 17.1 7 Sudeste -- -- 0 -- -- 65
2020-11-05 15:00:00 16.1 9 Sur -- -- 0 -- -- 78
2020-11-05 14:00:00 14.7 2 Sur -- -- 1 -- -- 93
2020-11-05 13:00:00 12.7 8 Sur -- -- 2.2 -- -- 93
2020-11-05 12:00:00 10.5 7 Sudeste -- -- 19.8 -- -- 94
2020-11-05 11:00:00 9.4 27 Sur -- -- 32.2 -- -- 93
2020-11-05 10:00:00 12.4 5 Oeste -- -- 1.8 -- -- 88
2020-11-05 09:00:00 12.8 6 Sudoeste -- -- 0.4 -- -- 84
2020-11-05 08:00:00 12.4 7 Sur -- -- 1.2 -- -- 84
2020-11-05 07:00:00 12.2 15 Sur -- -- 2 -- -- 87
2020-11-05 06:00:00 12.2 19 Sur -- -- 3.8 -- -- 85
2020-11-05 05:00:00 12.5 23 Sur -- -- 2.2 -- -- 84
2020-11-05 04:00:00 12.2 11 Sur -- -- 1.8 -- -- 86
2020-11-05 03:00:00 12 12 Sur -- -- 0.4 -- -- 84
2020-11-05 02:00:00 12 17 Sudeste -- -- 0.4 -- -- 81
2020-11-05 01:00:00 12.4 13 Sur -- -- 3.2 -- -- 82
2020-11-05 00:00:00 12.2 0 Calma -- -- 3.4 -- -- 85
2020-11-04 23:00:00 13.2 8 Sudeste -- -- 0.2 -- -- 79
2020-11-04 22:00:00 12.9 7 Sur -- -- 0 -- -- 78
2020-11-04 21:00:00 12.6 9 Sur -- -- 0 -- -- 81
2020-11-04 20:00:00 12.4 6 Sur -- -- 0 -- -- 80
2020-11-04 19:00:00 12 5 Sudeste -- -- 0 -- -- 83
2020-11-04 18:00:00 12.4 6 Sudeste -- -- 0 -- -- 84
2020-11-04 17:00:00 12.3 5 Sudeste -- -- 0.4 -- -- 80
2020-11-04 16:00:00 11.5 12 Este -- -- 9.8 -- -- 90
2020-11-04 15:00:00 14.2 6 Sur -- -- 0 -- -- 78
2020-11-04 14:00:00 15.1 12 Sur -- -- 0 -- -- 72
2020-11-04 13:00:00 15.9 12 Sur -- -- 0 -- -- 68
2020-11-04 12:00:00 15.3 3 Sur -- -- 0 -- -- 74
2020-11-04 11:00:00 14.8 4 Sur -- -- 0 -- -- 75
2020-11-04 10:00:00 12.4 0 Calma -- -- 0 -- -- 86
2020-11-04 09:00:00 11.9 2 Noroeste -- -- 0.8 -- -- 88
2020-11-04 08:00:00 11.9 0 Calma -- -- 0 -- -- 83
2020-11-04 07:00:00 12.1 0 Calma -- -- 0 -- -- 85
2020-11-04 06:00:00 12.2 0 Calma -- -- 0 -- -- 85
2020-11-04 05:00:00 12.6 3 Nordeste -- -- 0 -- -- 87
2020-11-04 04:00:00 12.6 0 Calma -- -- 0 -- -- 87
2020-11-04 03:00:00 13.2 0 Calma -- -- 0 -- -- 83
2020-11-04 02:00:00 13.9 0 Calma -- -- 0 -- -- 78
2020-11-04 01:00:00 14.2 0 Calma -- -- 0 -- -- 76
2020-11-04 00:00:00 14.7 0 Calma -- -- 0 -- -- 73
2020-11-03 23:00:00 14.9 0 Calma -- -- 0 -- -- 72
2020-11-03 22:00:00 15.5 0 Calma -- -- 0 -- -- 70
2020-11-03 21:00:00 16.2 3 Nordeste -- -- 0 -- -- 68
2020-11-03 20:00:00 16.8 2 Este -- -- 0 -- -- 65
2020-11-03 19:00:00 17.8 4 Norte -- -- 0 -- -- 61
2020-11-03 18:00:00 19 0 Calma -- -- 0 -- -- 54
2020-11-03 17:00:00 21 9 Oeste -- -- 0 -- -- 49
2020-11-03 16:00:00 22.4 6 Noroeste -- -- 0 -- -- 44
2020-11-03 15:00:00 22.9 6 Noroeste -- -- 0 -- -- 40
2020-11-03 14:00:00 23.5 11 Noroeste -- -- 0 -- -- 39
2020-11-03 13:00:00 23.7 2 Sudoeste -- -- 0 -- -- 41
2020-11-03 12:00:00 21.5 4 Sudoeste -- -- 0 -- -- 46
2020-11-03 11:00:00 20.3 3 Noroeste -- -- 0 -- -- 51
2020-11-03 10:00:00 18.9 0 Calma -- -- 0 -- -- 52
2020-11-03 09:00:00 13.8 4 Sudeste -- -- 0 -- -- 62
2020-11-03 08:00:00 12.8 6 Este -- -- 0 -- -- 64
2020-11-03 07:00:00 12.4 3 Sudeste -- -- 0 -- -- 66
2020-11-03 06:00:00 12.5 4 Este -- -- 0 -- -- 65
2020-11-03 05:00:00 12.7 5 Este -- -- 0 -- -- 64
2020-11-03 04:00:00 13 4 Sudeste -- -- 0 -- -- 65
2020-11-03 03:00:00 13.8 3 Este -- -- 0 -- -- 61
2020-11-03 02:00:00 14.1 2 Nordeste -- -- 0 -- -- 59
2020-11-03 01:00:00 14.4 2 Nordeste -- -- 0 -- -- 61
2020-11-03 00:00:00 14.3 5 Este -- -- 0 -- -- 61
2020-11-02 23:00:00 15.2 5 Este -- -- 0 -- -- 59
2020-11-02 22:00:00 15.7 3 Este -- -- 0 -- -- 59
2020-11-02 21:00:00 16.7 3 Este -- -- 0 -- -- 56
2020-11-02 20:00:00 17.9 4 Este -- -- 0 -- -- 53
2020-11-02 19:00:00 19.7 0 Calma -- -- 0 -- -- 48
2020-11-02 18:00:00 22.1 6 Oeste -- -- 0 -- -- 45
2020-11-02 17:00:00 24.4 5 Norte -- -- 0 -- -- 37
2020-11-02 16:00:00 25.9 6 Noroeste -- -- 0 -- -- 31
2020-11-02 15:00:00 26.1 5 Sudoeste -- -- 0 -- -- 30
2020-11-02 14:00:00 26.1 6 Sur -- -- 0 -- -- 28
2020-11-02 13:00:00 25.1 4 Oeste -- -- 0 -- -- 31
2020-11-02 12:00:00 22.9 4 Oeste -- -- 0 -- -- 36
2020-11-02 11:00:00 21.4 2 Noroeste -- -- 0 -- -- 40
2020-11-02 10:00:00 19.6 3 Este -- -- 0 -- -- 38
2020-11-02 09:00:00 15.2 3 Nordeste -- -- 0 -- -- 47
2020-11-02 08:00:00 13.2 2 Este -- -- 0 -- -- 53
2020-11-02 07:00:00 13.1 3 Sudeste -- -- 0 -- -- 53
2020-11-02 06:00:00 13.5 4 Este -- -- 0 -- -- 52
2020-11-02 05:00:00 13.7 5 Este -- -- 0 -- -- 53
2020-11-02 04:00:00 13.7 2 Nordeste -- -- 0 -- -- 56
2020-11-02 03:00:00 13.8 3 Este -- -- 0 -- -- 53
2020-11-02 02:00:00 14 3 Este -- -- 0 -- -- 52
2020-11-02 01:00:00 14.2 5 Este -- -- 0 -- -- 58
2020-11-02 00:00:00 14.7 0 Calma -- -- 0 -- -- 61
2020-11-01 23:00:00 15.2 5 Este -- -- 0 -- -- 66
2020-11-01 22:00:00 15.7 5 Este -- -- 0 -- -- 66
2020-11-01 21:00:00 16.7 4 Sudeste -- -- 0 -- -- 65
2020-11-01 20:00:00 18.1 0 Calma -- -- 0 -- -- 61
2020-11-01 19:00:00 19.6 0 Calma -- -- 0 -- -- 55
2020-11-01 18:00:00 22.1 4 Oeste -- -- 0 -- -- 49
2020-11-01 17:00:00 24 6 Oeste -- -- 0 -- -- 44
2020-11-01 16:00:00 24.9 11 Noroeste -- -- 0 -- -- 36
2020-11-01 15:00:00 25.9 6 Sudoeste -- -- 0 -- -- 34
2020-11-01 14:00:00 25.7 5 Oeste -- -- 0 -- -- 34
2020-11-01 13:00:00 24.2 4 Noroeste -- -- 0 -- -- 37
2020-11-01 12:00:00 22.1 3 Oeste -- -- 0 -- -- 48
2020-11-01 11:00:00 20.5 2 Norte -- -- 0 -- -- 47
2020-11-01 10:00:00 18.3 0 Calma -- -- 0 -- -- 56
2020-11-01 09:00:00 13.5 4 Este -- -- 0 -- -- 66
2020-11-01 08:00:00 12.3 4 Este -- -- 0 -- -- 70
2020-11-01 07:00:00 11.4 6 Este -- -- 0 -- -- 75
2020-11-01 06:00:00 12.3 3 Este -- -- 0 -- -- 73
2020-11-01 05:00:00 12.3 3 Este -- -- 0 -- -- 72
2020-11-01 04:00:00 12.6 2 Sudeste -- -- 0 -- -- 73
2020-11-01 03:00:00 13 0 Calma -- -- 0 -- -- 73
2020-11-01 02:00:00 13.4 4 Este -- -- 0 -- -- 72
2020-11-01 01:00:00 13.9 2 Este -- -- 0 -- -- 72
2020-11-01 00:00:00 14.4 2 Este -- -- 0 -- -- 71
2020-10-31 23:00:00 14.5 5 Este -- -- 0 -- -- 71
2020-10-31 22:00:00 15 3 Este -- -- 0 -- -- 70
2020-10-31 21:00:00 16.1 0 Calma -- -- 0 -- -- 67
2020-10-31 20:00:00 17.1 3 Este -- -- 0 -- -- 63
2020-10-31 19:00:00 18.6 2 Este -- -- 0 -- -- 58
2020-10-31 18:00:00 20.6 6 Noroeste -- -- 0 -- -- 51
2020-10-31 17:00:00 23 9 Noroeste -- -- 0 -- -- 44
2020-10-31 16:00:00 24.3 9 Noroeste -- -- 0 -- -- 37
2020-10-31 15:00:00 24.6 7 Noroeste -- -- 0 -- -- 32
2020-10-31 14:00:00 24.3 6 Noroeste -- -- 0 -- -- 35
2020-10-31 13:00:00 23.3 6 Noroeste -- -- 0 -- -- 36
2020-10-31 12:00:00 21.4 3 Sudoeste -- -- 0 -- -- 36
2020-10-31 11:00:00 19.4 5 Noroeste -- -- 0 -- -- 45
2020-10-31 10:00:00 17.2 4 Este -- -- 0 -- -- 47
2020-10-31 09:00:00 -- 0 Calma -- -- 0 -- -- --
2020-10-31 08:00:00 -- -- -- -- -- 0 -- -- --
2020-10-31 07:00:00 -- 3 Noroeste -- -- 0 -- -- --
2020-10-31 06:00:00 -- -- -- -- -- 0 -- -- --
2020-10-31 05:00:00 -- -- -- -- -- 0 -- -- --
2020-10-31 04:00:00 -- -- -- -- -- 0 -- -- --
2020-10-31 03:00:00 -- -- -- -- -- 0 -- -- --
2020-10-31 02:00:00 -- 3 Sur -- -- 0 -- -- --
2020-10-31 01:00:00 -- 3 Este -- -- 0 -- -- --
2020-10-31 00:00:00 15.4 0 Calma -- -- 0 -- -- 52
2020-10-30 23:00:00 15.3 3 Norte -- -- 0 -- -- 58
2020-10-30 22:00:00 15.4 0 Calma -- -- 0 -- -- 58
2020-10-30 21:00:00 16.4 4 Nordeste -- -- 0 -- -- 53
2020-10-30 20:00:00 16.9 3 Este -- -- 0 -- -- 54
2020-10-30 19:00:00 18.1 3 Nordeste -- -- 0 -- -- 51
2020-10-30 18:00:00 19.6 4 Sudoeste -- -- 0 -- -- 43
2020-10-30 17:00:00 21.3 5 Sur -- -- 0 -- -- 37
2020-10-30 16:00:00 22.9 8 Sur -- -- 0 -- -- 38
2020-10-30 15:00:00 22.5 10 Sur -- -- 0 -- -- 38
2020-10-30 14:00:00 -- 12 Sur -- -- 0 -- -- --
2020-10-30 13:00:00 23.4 12 Sur -- -- 0 -- -- 34
2020-10-30 12:00:00 -- 12 Sur -- -- 0 -- -- --
2020-10-30 11:00:00 -- 5 Sur -- -- 0 -- -- --
2020-10-30 10:00:00 20.1 6 Sur -- -- 0 -- -- 40
2020-10-30 09:00:00 17.4 8 Sur -- -- 0 -- -- 46
2020-10-30 08:00:00 -- 8 Sur -- -- 0 -- -- --
2020-10-30 07:00:00 15.9 5 Sur -- -- 0 -- -- 46
2020-10-30 06:00:00 15.8 5 Sudeste -- -- 0 -- -- 50
2020-10-30 05:00:00 -- 8 Sur -- -- 0 -- -- --
2020-10-30 04:00:00 16.3 10 Sur -- -- 0 -- -- 53
2020-10-30 03:00:00 -- 10 Sur -- -- 0 -- -- --
2020-10-30 02:00:00 16.3 7 Sur -- -- 0 -- -- 55
2020-10-30 01:00:00 -- -- -- -- -- 0 -- -- --
2020-10-30 00:00:00 -- -- -- -- -- 0 -- -- --
2020-10-29 23:00:00 -- -- -- -- -- 0 -- -- --
2020-10-29 22:00:00 16.9 7 Sudeste -- -- 0 -- -- 50
2020-10-29 21:00:00 16.7 5 Sur -- -- 0 -- -- 49
2020-10-29 20:00:00 17.2 6 Sudeste -- -- 0 -- -- 45
2020-10-29 19:00:00 18 5 Sudeste -- -- 0 -- -- 43
2020-10-29 18:00:00 19.5 10 Sudeste -- -- 0 -- -- 41
2020-10-29 17:00:00 21.6 9 Sudeste -- -- 0 -- -- 38
2020-10-29 16:00:00 22.5 10 Sur -- -- 0 -- -- 35
2020-10-29 15:00:00 22.7 12 Sur -- -- 0 -- -- 33
2020-10-29 14:00:00 23 13 Sur -- -- 0 -- -- 31
2020-10-29 13:00:00 23.2 9 Sur -- -- 0 -- -- 31
2020-10-29 12:00:00 22.6 11 Sur -- -- 0 -- -- 28
2020-10-29 11:00:00 21.6 3 Sur -- -- 0 -- -- 31
2020-10-29 10:00:00 18.7 0 Calma -- -- 0 -- -- 42
2020-10-29 09:00:00 -- 0 Calma -- -- 0 -- -- --
2020-10-29 08:00:00 -- -- -- -- -- 0 -- -- --
2020-10-29 07:00:00 -- -- -- -- -- 0 -- -- --
2020-10-29 06:00:00 -- -- -- -- -- 0 -- -- --
2020-10-29 05:00:00 -- -- -- -- -- 0 -- -- --
2020-10-29 04:00:00 -- -- -- -- -- 0 -- -- --
2020-10-29 03:00:00 -- -- -- -- -- 0 -- -- --
2020-10-29 02:00:00 -- -- -- -- -- 0 -- -- --
2020-10-29 01:00:00 -- -- -- -- -- 0 -- -- --
2020-10-29 00:00:00 -- -- -- -- -- 0 -- -- --
2020-10-28 23:00:00 12.8 0 Calma -- -- 0 -- -- 75
2020-10-28 22:00:00 13.2 0 Calma -- -- 0 -- -- 72
2020-10-28 21:00:00 13.8 0 Calma -- -- 0 -- -- 71
2020-10-28 20:00:00 14.7 7 Norte -- -- 0 -- -- 68
2020-10-28 19:00:00 16.2 6 Nordeste -- -- 0 -- -- 63
2020-10-28 18:00:00 18.9 6 Norte -- -- 0 -- -- 55
2020-10-28 17:00:00 21.1 7 Norte -- -- 0 -- -- 41
2020-10-28 16:00:00 21.7 6 Noroeste -- -- 0 -- -- 43
2020-10-28 15:00:00 22.5 4 Noroeste -- -- 0 -- -- 41
2020-10-28 14:00:00 21.1 4 Noroeste -- -- 0 -- -- 44
2020-10-28 13:00:00 20 4 Norte -- -- 0 -- -- 41
2020-10-28 12:00:00 17.2 5 Noroeste -- -- 0 -- -- 47
2020-10-28 11:00:00 14.9 4 Norte -- -- 0 -- -- 58
2020-10-28 10:00:00 13.1 3 Norte -- -- 0 -- -- 62
2020-10-28 09:00:00 9.7 2 Norte -- -- 0 -- -- 73
2020-10-28 08:00:00 7.6 3 Este -- -- 0 -- -- 77
2020-10-28 07:00:00 7.4 0 Calma -- -- 0 -- -- 77
2020-10-28 06:00:00 7.4 0 Calma -- -- 0 -- -- 77
2020-10-28 05:00:00 7.9 0 Calma -- -- 0 -- -- 75
2020-10-28 04:00:00 7.9 0 Calma -- -- 0 -- -- 75
2020-10-28 03:00:00 8.4 0 Calma -- -- 0 -- -- 72
2020-10-28 02:00:00 8.7 2 Este -- -- 0 -- -- 71
2020-10-28 01:00:00 9.2 0 Calma -- -- 0 -- -- 68
2020-10-28 00:00:00 9.4 2 Oeste -- -- 0 -- -- 66